Find Starlink 37387

NORAD ID: 68973 Int'l Des: 2026-099 Owner: SPXS Country: US Constellation: starlink operational
LEOCIRCULAR

实时位置

正在加载3D地球...

关于 Starlink 37387

正在加载描述...

即将过境

Passes for default location (London). Set your location on the main map for personalized predictions.

高度历史

Loading altitude history...

两行轨道根数

1 68973C 26099Y 26125.82756944 -.01410300 00000+0 -21552-2 0 1258
2 68973 53.1616 7.2628 0000722 104.1441 93.7499 16.04377959 11
Epoch: May 5, 2026 • Age: 31 hours

当前状态

高度 271.8 km
速度 7.75 km/s
星下点 51.84°N, 137.79°E
发射日期 May 1, 2026
运行时间 4 days
类型 internet

技术详情

分类 Payload
质量 575.00 kg
干质量 530.00 kg
总质量 575.00 kg
长度 0.30 m
直径 4.10 m
跨度 29.00 m
形状 Box + pan
制造商 SPXS
平台类型 Starlink V2MO
阶段状态 In Orbit
所有者/国家 SPXS/US

Most Searched